London City, United Kingdom

4:40 PM BST on May 21, 2018 (GMT +0100)
London City

Weather History for EGLC - October, 2012

Change the Weather History Date:

Monday, October 8, 2012

  Actual Average Record
Temperature  
Mean Temperature 50 °F -  
Max Temperature 53 °F 59 °F 68 °F (2003)
Min Temperature 48 °F 50 °F 44 °F (2003)
Degree Days  
Heating Degree Days 14    
Moisture  
Dew Point 50 °F    
Average Humidity 91    
Maximum Humidity 94    
Minimum Humidity 82    
Precipitation  
Precipitation 0.00 in - - ()
Sea Level Pressure  
Sea Level Pressure 29.98 in    
Wind  
Wind Speed 5 mph ()    
Max Wind Speed 10 mph    
Max Gust Speed -    
Visibility 4.1 miles    
Events Rain    
Averages and records for this station are not official NWS values.
T = Trace of Precipitation, MM = Missing Value Source: Averaged Metar Reports

Daily Weather History Graph

Daily Weather History Graph

Search for Another Location

Airport or City:

Astronomy

Oct. 08, 2012 Rise Set
Actual Time 7:12 AM BST 6:20 PM BST
Civil Twilight 6:39 AM BST 6:54 PM BST
Nautical Twilight 6:00 AM BST 7:32 PM BST
Astronomical Twilight 5:21 AM BST 8:11 PM BST
Moon 11:53 PM BST (10/8) 2:44 PM BST (10/8)
Length of Visible Light 12h 15m
Length of Day
11h 08m
Waning Gibbous, 48% of the Moon is Illuminated
Oct 8
Waning Gibbous
Oct 15
New
Oct 22
First Quarter
Oct 29
Full
Nov 7
Last Quarter

Hourly Weather History & Observations

Time (BST) Temp. Dew Point Humidity Pressure Visibility Wind Dir Wind Speed Gust Speed Precip Events Conditions
12:20 AM 50.0 °F 46.4 °F 87% 30.18 in 5.6 mi East 4.6 mph - N/A   Unknown
12:50 AM 50.0 °F 46.4 °F 87% 30.15 in 3.7 mi East 5.8 mph - N/A   Unknown
1:20 AM 48.2 °F 46.4 °F 93% 30.15 in 3.1 mi East 5.8 mph - N/A   Mist
1:50 AM 50.0 °F 48.2 °F 94% 30.12 in 3.1 mi East 4.6 mph - N/A   Partly Cloudy
2:20 AM 50.0 °F 48.2 °F 94% 30.12 in 3.1 mi East 4.6 mph - N/A   Mist
2:50 AM 50.0 °F 48.2 °F 94% 30.12 in 3.1 mi East 4.6 mph - N/A   Mist
3:20 AM 50.0 °F 48.2 °F 94% 30.09 in 4.3 mi East 5.8 mph - N/A   Unknown
3:50 AM 51.8 °F 48.2 °F 88% 30.09 in 6.2 mi East 5.8 mph - N/A   Unknown
4:20 AM 51.8 °F 48.2 °F 88% 30.09 in 6.2 mi East 4.6 mph - N/A   Unknown
4:50 AM 51.8 °F 48.2 °F 88% 30.06 in 6.2 mi ENE 4.6 mph - N/A   Unknown
5:20 AM 51.8 °F 48.2 °F 88% 30.06 in 6.2 mi East 5.8 mph - N/A   Unknown
5:50 AM 51.8 °F 48.2 °F 88% 30.06 in 6.2 mi ENE 6.9 mph - N/A   Unknown
6:20 AM 51.8 °F 48.2 °F 88% 30.04 in - East 5.8 mph - N/A   Clear
6:50 AM 51.8 °F 46.4 °F 82% 30.04 in - East 5.8 mph - N/A   Clear
7:20 AM 51.8 °F 48.2 °F 88% 30.01 in - East 6.9 mph - N/A   Clear
7:50 AM 51.8 °F 48.2 °F 88% 30.01 in - East 8.1 mph - N/A   Clear
8:20 AM 51.8 °F 48.2 °F 88% 30.01 in - East 8.1 mph - N/A   Clear
8:50 AM 53.6 °F 48.2 °F 82% 30.01 in 6.2 mi East 6.9 mph - N/A Rain Rain
9:20 AM 53.6 °F 48.2 °F 82% 30.01 in 6.2 mi East 8.1 mph - N/A Rain Light Rain
9:50 AM 53.6 °F 48.2 °F 82% 30.01 in 6.2 mi East 8.1 mph - N/A   Scattered Clouds
10:20 AM 53.6 °F 48.2 °F 82% 29.98 in 4.3 mi ENE 8.1 mph - N/A Rain Light Rain
10:50 AM 51.8 °F 50.0 °F 94% 29.98 in 6.2 mi ENE 9.2 mph - N/A Rain Light Rain
11:20 AM 51.8 °F 50.0 °F 94% 29.98 in 5.0 mi ENE 9.2 mph - N/A Rain Rain
11:50 AM 53.6 °F 51.8 °F 94% 29.95 in 3.1 mi East 9.2 mph - N/A Rain Heavy Rain
12:20 PM 53.6 °F 51.8 °F 94% 29.95 in 2.2 mi East 5.8 mph - N/A Rain Light Rain
12:50 PM 53.6 °F 51.8 °F 94% 29.95 in 2.2 mi ENE 8.1 mph - N/A Rain Rain
1:20 PM 53.6 °F 51.8 °F 94% 29.95 in 2.5 mi ENE 8.1 mph - N/A Rain Rain
1:50 PM 53.6 °F 51.8 °F 94% 29.92 in 2.5 mi East 8.1 mph - N/A Rain Light Rain
2:20 PM 53.6 °F 51.8 °F 94% 29.92 in 4.3 mi ENE 9.2 mph - N/A   Light Drizzle
2:50 PM 53.6 °F 51.8 °F 94% 29.92 in 5.6 mi ENE 10.4 mph - N/A   Scattered Clouds
3:20 PM 53.6 °F 51.8 °F 94% 29.89 in 5.0 mi ENE 6.9 mph - N/A   Mostly Cloudy
3:50 PM 53.6 °F 51.8 °F 94% 29.89 in 4.3 mi ENE 8.1 mph - N/A   Light Drizzle
4:20 PM 53.6 °F 51.8 °F 94% 29.89 in 3.7 mi ENE 6.9 mph - N/A   Light Drizzle
4:50 PM 53.6 °F 51.8 °F 94% 29.89 in 2.8 mi ENE 8.1 mph - N/A   Light Drizzle
5:20 PM 53.6 °F 51.8 °F 94% 29.89 in 4.3 mi ENE 6.9 mph - N/A   Mostly Cloudy
5:50 PM 53.6 °F 51.8 °F 94% 29.89 in 3.1 mi NE 5.8 mph - N/A   Mostly Cloudy
6:20 PM 53.6 °F 51.8 °F 94% 29.89 in 2.8 mi NE 4.6 mph - N/A   Mostly Cloudy
6:50 PM 53.6 °F 51.8 °F 94% 29.89 in 2.8 mi Variable 3.5 mph - N/A   Mostly Cloudy
7:20 PM 53.6 °F 51.8 °F 94% 29.89 in 2.8 mi NE 4.6 mph - N/A   Mostly Cloudy
7:50 PM 53.6 °F 51.8 °F 94% 29.89 in - Variable 2.3 mph - N/A   Mostly Cloudy
8:20 PM 53.6 °F 51.8 °F 94% 29.89 in 1.6 mi Variable 2.3 mph - N/A   Mostly Cloudy
8:50 PM 53.6 °F 51.8 °F 94% 29.89 in 1.5 mi Variable 3.5 mph - N/A   Mostly Cloudy
9:20 PM 53.6 °F 51.8 °F 94% 29.89 in 1.1 mi North 3.5 mph - N/A Rain Light Rain
9:50 PM 53.6 °F 51.8 °F 94% 29.92 in - North 5.8 mph - N/A   Drizzle
10:20 PM 53.6 °F 51.8 °F 94% 29.92 in 5.0 mi Variable 3.5 mph - N/A   Mostly Cloudy
10:50 PM 53.6 °F 51.8 °F 94% 29.92 in 4.3 mi North 4.6 mph - N/A   Scattered Clouds
11:20 PM 53.6 °F 51.8 °F 94% 29.92 in 3.1 mi Variable 3.5 mph - N/A   Drizzle
11:50 PM 53.6 °F 51.8 °F 94% 29.92 in 5.0 mi Variable 3.5 mph - N/A Rain Light Rain Showers